Hourly Data Report for March 16, 2019

MIRAMICHI RCS
NEW BRUNSWICK
Current Station Operator: ECCC - MSC

47°00'34.000" N
65°27'54.000" W
33.00 m
8100989
71744
ACQ

Download Data

Hourly Data (March 2019)
Hourly Data Report for March 16, 2019
TIME
LST
Temp Definition
°C
Dew Point Definition
°C
Rel Hum Definition
%
Precip. Amount Definition
mm

Wind Dir Definition
10's deg

Wind Spd Definition
km/h
Visibility Definition
km
Stn Press Definition
kPa
Hmdx Definition


Wind Chill Definition


Weather Definition


00:00 5.7 5.1 96 0.0 21 25   99.76     LegendNANA
01:00 4.4 4.0 97 0.0 20 15   99.66     LegendNANA
02:00 4.8 4.4 98 0.0 22 20   99.66     LegendNANA
03:00 4.9 4.4 97 0.0 22 19   99.66     LegendNANA
04:00 4.0 3.7 98 0.0 22 12   99.56     LegendNANA
05:00 4.3 4.0 98 0.0 21 13   99.45     LegendNANA
06:00 4.2 3.9 98 0.0 20 12   99.42     LegendNANA
07:00 3.7 3.4 98 0.0 23 14   99.34     LegendNANA
08:00 3.8 3.5 98 0.0 23 13   99.38     LegendNANA
09:00 4.9 3.6 92 0.2 24 11   99.27     LegendNANA
10:00 4.9 3.3 89 0.0 23 13   99.22     LegendNANA
11:00 4.7 3.2 90 0.4 23 14   99.16     LegendNANA
12:00 5.5 3.4 86 0.0 23 16   99.12     LegendNANA
13:00 6.0 2.7 79 0.0 24 16   99.07     LegendNANA
14:00 6.2 0.1 65 0.0 24 25   99.02     LegendNANA
15:00 7.1 -2.4 51 0.0 26 31   99.00     LegendNANA
16:00 5.5 -3.8 51 0.0 26 30   99.08     LegendNANA
17:00 5.1 -4.3 51 0.0 26 24   99.14     LegendNANA
18:00 3.0 -4.0 60 0.0 28 29   99.25     LegendNANA
19:00 2.5 -6.4 52 0.0 27 29   99.34     LegendNANA
20:00 0.4 -6.8 58 0.0 26 31   99.49     LegendNANA
21:00 -1.7 -5.4 76 0.0 28 26   99.66   -8 LegendNANA
22:00 -2.9 -11.4 52 0.0 29 39   99.76   -11 LegendNANA
23:00 -4.2 -12.6 52 0.0 28 35   99.83   -13 LegendNANA

Notes on Data Quality.

Legend

  • E = Estimated
  • M = Missing
  • NA = Not Available*
  • [empty] = Indicates an unobserved value
Date modified: